Regional Weather Roundup
Issued by NWS State College, PA

Home | Current Version | Previous Version | Text Only | Print | Product List | Glossary On
Versions: 1 2 3 4 5 6 7 8 9 10 11 12 13 14 15 16 17 18 19 20 21 22 23 24 25 26 27 28 29 30 31 32 33 34 35 36 37 38 39 40 41 42 43 44 45 46 47 48 49 50
000
ASUS41 KCTP 060403
RWRCTP

REGIONAL WEATHER ROUNDUP
NATIONAL WEATHER SERVICE STATE COLLEGE PA
1200 AM EDT WED MAY 06 2015

Note: "fair" indicates few or no clouds below 12,000 feet with no
significant weather and/or obstructions to visibility.

* = STATION THAT DOES NOT REPORT PRECIPITATION /E.G. RAIN...SNOW...ETC/
    THUNDER OR FOG.

PAZ002>004-007>009-013>016-020>023-029>032-060500-
WESTERN PENNSYLVANIA

CITY           SKY/WX    TMP DP  RH WIND       PRES   REMARKS
ERIE           CLOUDY    50  49  96 E7        30.25F FOG
MEADVILLE      LGT RAIN  59  57  93 NE6       30.25F VSB 1/2
FRANKLIN*      CLOUDY    61  55  82 NE3       30.27S
NEW CASTLE     FAIR      61  61 100 CALM      30.25S
BEAVER COUNTY  NOT AVBL
BUTLER*        PTCLDY    61  57  88 E5        30.25F
PITTSBURGH INT PTCLDY    63  61  93 CALM      30.23S
PITTSBURGH     CLEAR     65  56  72 SE5       30.23S
INDIANA*       MOCLDY    61  59  94 E5        30.29S
LATROBE        PTCLDY    61  61 100 CALM      30.25F
WASHINGTON CO* CLEAR     57  55  94 CALM      30.25S
$$

PAZ004>006-010>012-017>019-024>028-033>037-041-042-045-046-049>053-060500-
CENTRAL PENNSYLVANIA

CITY           SKY/WX    TMP DP  RH WIND       PRES   REMARKS
BRADFORD       LGT RAIN  56  54  93 CALM      30.29S FOG
DUBOIS         MOCLDY    60  56  86 E6        30.26S
CLEARFIELD     MOCLDY    59  56  89 NE6       30.26F
JOHNSTOWN      MOCLDY    64  56  75 CALM      30.27S
ALTOONA        MOCLDY    63  56  78 CALM      30.26S
STATE COLLEGE  MOCLDY    61  59  93 N3        30.26S
WILLIAMSPORT   CLOUDY    64  60  87 W3        30.24S
SELINSGROVE    CLOUDY    63  62  97 CALM      30.23F FOG
FT INDIANTOWN  CLOUDY    64  61  89 VRB2      30.22S
CAPITAL CITY   MOCLDY    67  63  87 S3        30.22R
HARRISBURG     MOCLDY    68  61  78 E3        30.22R
YORK           MOCLDY    67  58  72 NE6       30.22S
$$

PAZ038>040-043-044-047-048-054-055-060>062-067>071-060500-
EASTERN PENNSYLVANIA

CITY           SKY/WX    TMP DP  RH WIND       PRES   REMARKS
SCRANTON       LGT RAIN  69  47  45 N8        30.24R
MOUNT POCONO   CLOUDY    65  42  43 N6        30.26R
ALLENTOWN      CLOUDY    68  56  65 CALM      30.21S
QUAKERTOWN*    CLOUDY    64  59  82 CALM      30.22S
READING        LGT RAIN  67  59  75 SW3       30.21R
LANCASTER      LGT RAIN  65  61  87 S5        30.23R
COATESVILLE    LGT RAIN  70  59  68 SW6       30.24R
POTTSTOWN      CLOUDY    67  59  75 CALM      30.22S
BLUE BELL      CLOUDY    68  61  77 CALM      30.20S
DOYLESTOWN     CLOUDY    67  56  67 CALM      30.19F
WILLOW GROVE   NOT AVBL
NORTH PHILA    CLOUDY    73  57  57 SW5       30.22S
PHILADELPHIA   MOCLDY    73  60  63 SW10      30.21S
$$


USA.gov is the U.S. government's official web portal to all federal, state and local government web resources and services.